Location: Nied?wied?
(53.3665°N, 14.8184°E)
Time: 18:26:58
(UTC+00:00)

ISS - Pass Details

Date: 21 May 2021
Orbit: 417 x 422 km, 51.6° (Epoch: 14 June)

Event Time Altitude Azimuth Distance (km) Brightness Sun altitude
Rises 21:44:24 0° 276° (W) 2,369 0.4 -14.6°
Reaches altitude 10° 21:46:32 10° 271° (W) 1,505 -0.7 -14.7°
Maximum altitude 21:49:49 49° 196° (SSW) 554 -3.5 -14.8°
Enters shadow 21:51:03 31° 139° (SE) 769 -2.9 -14.9°
